Home   Weather   Fairfield Park   Past weeks
Flag for USA

Past Weather in Fairfield Park, South Carolina, USA — Yesterday and Last 2 Weeks

Now
55 °F

Sunny.


Feels Like: 52 °F
Forecast: 61 / 41 °F
Wind: 13 mph from Northwest

Location: Spartanburg Memorial

Current Time: Dec 5, 2019 at 12:16:56 pm

Latest Report: Dec 5, 2019 at 11:55 am


Visibility: 10 mi

Pressure: 30.10 "Hg

Humidity: 23%

Dew Point: 18 °F

Location of Fairfield ParkLocation

Past Weather in Fairfield Park — Graph

°F

Fairfield Park Temperature Yesterday

Maximum temperature yesterday: 59 °F (at 3:35 pm)
Minimum temperature yesterday: 34 °F (at 7:55 am)
Average temperature yesterday: 46 °F

High & Low Weather Summary for the Past Weeks

 TemperatureHumidityPressure
High66 °F (Nov 22, 2:15 pm)100% (Nov 23, 5:55 am)30.32 "Hg (Nov 23, 5:55 am)
Low30 °F (Dec 3, 7:15 am)18% (Nov 28, 4:15 pm)29.51 "Hg (Dec 1, 2:55 pm)
Average49 °F64%29.96 "Hg
* Reported Nov 20 11:15 am — Dec 5 11:15 am, Fairfield Park. Weather by CustomWeather, © 2019

Note: Actual official high and low records may vary slightly from our data, if they occured in-between our weather recording intervals... More about our weather records

Fairfield Park Weather History for the Previous 24 Hours

Scroll right to see more
 ConditionsComfort  
Time TempWeatherWind HumidityBarometerVisibility
11:15 am
Thu, Dec 5
54 °FSunny.7 mph24%30.11 "Hg10 mi
10:55 am54 °FSunny.7 mph28%30.11 "Hg10 mi
10:35 am54 °FSunny.10 mph28%30.10 "Hg10 mi
10:15 am54 °FSunny.9 mph28%30.10 "Hg10 mi
9:35 am52 °FSunny.5 mph32%30.07 "Hg10 mi
9:15 am50 °FSunny.12 mph35%30.05 "Hg10 mi
8:55 am48 °FSunny.9 mph40%30.05 "Hg10 mi
8:35 am50 °FSunny.7 mph35%30.04 "Hg10 mi
8:15 am43 °FSunny.3 mph53%30.03 "Hg10 mi
7:55 am45 °FSunny.No wind42%30.03 "Hg10 mi
7:35 am45 °FSunny.5 mph42%30.02 "Hg10 mi
7:15 am45 °FClear.5 mph42%30.00 "Hg10 mi
6:55 am45 °FClear.3 mph42%30.00 "Hg10 mi
6:35 am39 °FClear.5 mph61%30.00 "Hg10 mi
6:15 am41 °FClear.3 mph57%29.99 "Hg10 mi
5:55 am39 °FClear.5 mph61%29.98 "Hg10 mi
5:35 am39 °FClear.6 mph65%29.97 "Hg10 mi
5:15 am37 °FClear.6 mph70%29.95 "Hg10 mi
4:35 am34 °FClear.5 mph81%29.93 "Hg10 mi
4:15 am34 °FClear.3 mph81%29.93 "Hg10 mi
3:35 am39 °FClear.No wind61%29.91 "Hg10 mi
3:15 am37 °FClear.No wind70%29.90 "Hg10 mi
2:55 am39 °FClear.No wind61%29.89 "Hg10 mi
2:35 am37 °FClear.No wind65%29.88 "Hg10 mi
2:15 am37 °FClear.No wind70%29.87 "Hg10 mi
1:55 am41 °FClear.No wind57%29.87 "Hg10 mi
1:35 am41 °FClear.5 mph57%29.86 "Hg10 mi
1:15 am43 °FClear.5 mph53%29.86 "Hg10 mi
12:55 am43 °FClear.No wind53%29.85 "Hg10 mi
12:35 am43 °FClear.6 mph53%29.84 "Hg10 mi
12:15 am43 °FClear.8 mph53%29.84 "Hg10 mi
11:35 pm
Wed, Dec 4
41 °FClear.7 mph57%29.84 "Hg10 mi
11:15 pm41 °FClear.7 mph53%29.84 "Hg10 mi
10:55 pm43 °FClear.5 mph46%29.84 "Hg10 mi
10:35 pm43 °FClear.5 mph46%29.83 "Hg10 mi
10:15 pm46 °FClear.5 mph40%29.83 "Hg10 mi
9:35 pm46 °FClear.7 mph40%29.84 "Hg10 mi
9:15 pm46 °FClear.7 mph40%29.83 "Hg10 mi
8:35 pm48 °FClear.3 mph34%29.82 "Hg10 mi
8:15 pm45 °FClear.No wind49%29.82 "Hg10 mi
7:35 pm46 °FClear.No wind37%29.81 "Hg10 mi
7:15 pm50 °FClear.No wind30%29.81 "Hg10 mi
6:55 pm52 °FClear.No wind28%29.80 "Hg10 mi
6:35 pm54 °FClear.6 mph26%29.79 "Hg10 mi
6:15 pm54 °FClear.5 mph26%29.79 "Hg10 mi
5:35 pm54 °FClear.No wind41%29.77 "Hg10 mi
5:15 pm55 °FSunny.No wind41%29.77 "Hg10 mi
4:55 pm57 °FSunny.3 mph39%29.76 "Hg10 mi
4:35 pm59 °FSunny.No wind31%29.75 "Hg10 mi
4:15 pm59 °FSunny.No wind34%29.74 "Hg10 mi
3:55 pm59 °FSunny.3 mph31%29.74 "Hg10 mi
3:35 pm59 °FSunny.5 mph31%29.74 "Hg10 mi
3:15 pm57 °FSunny.10 mph36%29.74 "Hg10 mi
2:55 pm57 °FSunny.9 mph33%29.74 "Hg10 mi
2:35 pm57 °FSunny.10 mph36%29.74 "Hg10 mi
2:15 pm55 °FSunny.9 mph36%29.75 "Hg10 mi
1:55 pm55 °FSunny.7 mph36%29.75 "Hg10 mi
1:35 pm55 °FSunny.12 mph36%29.75 "Hg10 mi
1:15 pm54 °FSunny.9 mph41%29.75 "Hg10 mi
12:55 pm54 °FSunny.9 mph41%29.76 "Hg10 mi
12:35 pm54 °FSunny.5 mph38%29.76 "Hg10 mi
12:15 pm52 °FSunny.7 mph41%29.78 "Hg10 mi
Weather by CustomWeather, © 2019

See weather overview

Advertising